"2009-01-05 00:00:00",513001,1.072,3.435,12.29,1.226,-7.183,96.7665,-8.93,-8,65.08,0,109.1,13.81,-8.21,325.4
"2009-01-05 00:00:30",513002,1.47,358.1,5.159,1.024,-7.71,96.76651,-8.93,-8,65.23,0,109.1,13.81,-8.21,320.1
"2009-01-05 00:01:00",513003,2.396,7.923,8.94,1.172,-4.957,96.76112,-8.95,-7.828,65.58,0,109.1,13.81,-8.23,329.9
"2009-01-05 00:01:30",513004,2.944,13.14,9.12,0.751,-3.878,96.74779,-8.98,-7.765,65.62,0,109.1,13.82,-8.26,335.1
"2009-01-05 00:02:00",513005,2.746,12.33,9.26,0.973,-4.224,96.74294,-8.99,-7.795,65.59,0,109.1,13.82,-8.27,334.3
"2009-01-05 00:02:30",513006,2.114,13.88,12.37,1.177,-5.1,96.73974,-9,-7.809,65.6,0,109.1,13.82,-8.28,335.9
"2009-01-05 00:03:00",513007,0.941,10.04,8.17,0.286,-8.03,96.73823,-9,-8.02,65.4,0,109.1,13.84,-8.28,332.0
"2009-01-05 00:03:30",513008,1.728,12.2,8.58,1.068,-6.897,96.74509,-8.99,-7.909,65.49,0,109,13.82,-8.27,334.2
"2009-01-05 00:04:00",513009,2.55,6.844,8.94,1.249,-5.747,96.75113,-8.97,-7.911,65.59,0,109,13.82,-8.25,328.8
"2009-01-05 00:04:30",513010,3.007,13.68,11.47,0.863,-3.938,96.75525,-8.96,-7.826,65.77,0,109,13.82,-8.24,335.7
"2009-01-05 00:05:00",513011,3.017,18.25,9.05,0.744,-3.349,96.75717,-8.96,-7.759,65.75,0,109,13.82,-8.24,340.2
"2009-01-05 00:05:30",513012,2.663,12.26,10.14,1.14,-4.193,96.75545,-8.96,-7.825,65.72,0,109,13.82,-8.24,334.3
"2009-01-05 00:06:00",513013,2.232,356.8,6.298,1.001,-6.776,96.74259,-8.99,-8.06,65.81,0,109,13.82,-8.27,318.8
"2009-01-05 00:06:30",513014,2.277,356.3,5.243,1.062,-7.227,96.73567,-9.01,-7.966,66.1,0,109,13.82,-8.29,318.3
"2009-01-05 00:07:00",513015,3.498,4.662,9.82,1.261,-4.844,96.73026,-9.02,-7.949,66.13,0,109,13.82,-8.30,326.7
"2009-01-05 00:07:30",513016,3.634,8.85,6.583,0.789,-3.112,96.73135,-9.02,-7.805,66.13,0,109,13.82,-8.30,330.9
"2009-01-05 00:08:00",513017,4.35,0.396,4.257,0.495,-3.245,96.73135,-9.02,-7.812,66.33,0,109,13.82,-8.30,322.4
"2009-01-05 00:08:30",513018,3.857,2.329,5.024,0.703,-3.34,96.73135,-9.02,-7.887,66.38,0,109.1,13.82,-8.30,324.3
"2009-01-05 00:09:00",513019,2.976,6.184,9.45,0.982,-4.063,96.72341,-9.04,-7.905,66.51,0,109,13.82,-8.32,328.2
"2009-01-05 00:09:30",513020,2.227,354.8,4.723,0.645,-7.111,96.71036,-9.08,-8.03,66.34,0,109,13.82,-8.36,316.8
"2009-01-05 00:10:00",513021,2.992,0.598,6.533,1.314,-5.667,96.70128,-9.1,-8.05,66.39,0,109,13.82,-8.38,322.6
"2009-01-05 00:10:30",513022,3.826,1.268,6.136,0.911,-4.22,96.69873,-9.1,-7.923,66.51,0,109,13.82,-8.38,323.3
"2009-01-05 00:11:00",513023,4.414,3.89,4.874,0.809,-3.613,96.6973,-9.11,-7.848,66.64,0,109,13.82,-8.39,325.9
"2009-01-05 00:11:30",513024,4.17,4.678,4.813,0.688,-3.127,96.6973,-9.11,-7.88,66.68,0,109,13.83,-8.39,326.7
"2009-01-05 00:12:00",513025,3.814,6.072,9.69,1.108,-3.933,96.6973,-9.11,-7.886,66.67,0,109,13.83,-8.39,328.1
"2009-01-05 00:12:30",513026,3.085,359.1,6.527,1.142,-5.907,96.6973,-9.11,-8.13,66.28,0,109,13.83,-8.39,321.1
"2009-01-05 00:13:00",513027,3.548,1.291,6.874,1.018,-4.912,96.69786,-9.11,-7.96,66.47,0,109,13.83,-8.39,323.3
"2009-01-05 00:13:30",513028,3.11,4.363,9.09,1.134,-5.232,96.7006,-9.1,-7.925,66.67,0,109,13.83,-8.38,326.4
"2009-01-05 00:14:00",513029,3.569,16.99,7.232,0.652,-3.414,96.6991,-9.1,-7.903,66.58,0,109,13.83,-8.38,339.0
"2009-01-05 00:14:30",513030,3.26,9.46,8.09,1.235,-4.157,96.70082,-9.1,-7.952,66.45,0,109,13.83,-8.38,331.5
"2009-01-05 00:15:00",513031,3.339,3.902,5.92,1.115,-4.79,96.69925,-9.1,-7.971,66.56,0,109,13.83,-8.38,325.9
"2009-01-05 00:15:30",513032,2.323,1.12,5.443,0.98,-6.869,96.69908,-9.1,-8.14,66.5,0,109,13.84,-8.38,323.1
"2009-01-05 00:16:00",513033,3.674,3.807,5.656,1.083,-4.415,96.69337,-9.12,-8.05,66.63,0,109,13.84,-8.40,325.8
"2009-01-05 00:16:30",513034,3.516,1.926,6.516,1.123,-4.996,96.68908,-9.13,-8.01,66.72,0,109,13.84,-8.41,323.9
"2009-01-05 00:17:00",513035,4.212,4.877,3.945,0.765,-3.361,96.68795,-9.13,-7.938,66.86,0,109,13.84,-8.41,326.9
"2009-01-05 00:17:30",513036,3.955,8.48,4.902,0.694,-3.535,96.68795,-9.13,-7.94,66.82,0,109,13.84,-8.41,330.5
"2009-01-05 00:18:00",513037,3.467,7.41,6.306,0.969,-4.39,96.68959,-9.13,-8.01,66.68,0,108.9,13.84,-8.41,329.4
"2009-01-05 00:18:30",513038,2.128,0.952,4.692,0.868,-6.797,96.69007,-9.13,-8.15,66.6,0,109,13.84,-8.41,323.0
"2009-01-05 00:19:00",513039,3.025,9.49,6.859,1.167,-5.709,96.67928,-9.15,-8.16,66.63,0,109,13.84,-8.43,331.5
"2009-01-05 00:19:30",513040,3.261,9.41,5.966,1.079,-4.654,96.6758,-9.16,-8.03,66.75,0,109,13.84,-8.44,331.4
"2009-01-05 00:20:00",513041,3.9,13.85,5.815,0.686,-3.88,96.67152,-9.17,-7.959,66.81,0,109,13.84,-8.45,335.9
"2009-01-05 00:20:30",513042,3.675,10.81,6.125,0.746,-3.991,96.66496,-9.19,-8.09,66.62,0,109,13.84,-8.47,332.8
"2009-01-05 00:21:00",513043,2.976,10.08,5.527,1.113,-5.015,96.66212,-9.2,-8.02,66.72,0,108.9,13.84,-8.48,332.1
"2009-01-05 00:21:30",513044,2.804,10.84,7.122,1.129,-5.78,96.66212,-9.2,-8.2,66.53,0,109,13.84,-8.48,332.8
"2009-01-05 00:22:00",513045,2.615,7.634,5.927,1.125,-5.931,96.66212,-9.2,-8.03,66.73,0,109,13.84,-8.48,329.6
"2009-01-05 00:22:30",513046,3.462,11.79,5.63,1.023,-4.716,96.66212,-9.2,-8.11,66.68,0,109,13.84,-8.48,333.8
"2009-01-05 00:23:00",513047,3.367,9.46,6.536,0.975,-4.569,96.66212,-9.2,-8.05,66.82,0,109,13.84,-8.48,331.5
"2009-01-05 00:23:30",513048,2.978,9.81,5.864,1.114,-4.788,96.66212,-9.2,-8.09,66.85,0,109,13.84,-8.48,331.8
"2009-01-05 00:24:00",513049,3.001,10.24,7.518,1.077,-4.574,96.66212,-9.2,-8.04,66.83,0,109,13.84,-8.48,332.2
"2009-01-05 00:24:30",513050,2.254,6.245,5.452,1.163,-6.324,96.66212,-9.2,-8.26,66.69,0,109,13.84,-8.48,328.2
"2009-01-05 00:25:00",513051,2.416,8.62,7.958,1.183,-6.022,96.66212,-9.2,-8.09,66.78,0,109,13.84,-8.48,330.6
"2009-01-05 00:25:30",513052,2.668,13.62,6.917,1.12,-4.959,96.66184,-9.2,-8.05,66.78,0,109,13.84,-8.48,335.6
"2009-01-05 00:26:00",513053,2.681,13.59,5.722,1.125,-5.39,96.65389,-9.22,-8.13,66.7,0,109,13.84,-8.50,335.6
"2009-01-05 00:26:30",513054,2.678,18.52,7.31,1.098,-4.756,96.6451,-9.24,-8.09,66.77,0,109,13.84,-8.52,340.5
"2009-01-05 00:27:00",513055,2.918,20.27,6.268,1.043,-4.654,96.63969,-9.25,-8.09,66.76,0,109,13.84,-8.54,342.3
"2009-01-05 00:27:30",513056,1.66,12.02,5.917,0.833,-6.883,96.63686,-9.26,-8.19,66.68,0,108.9,13.85,-8.54,334.0
"2009-01-05 00:28:00",513057,2.872,19.32,7.726,1.283,-5.984,96.6323,-9.27,-8.1,66.76,0,109,13.85,-8.55,341.3
"2009-01-05 00:28:30",513058,3.686,21.3,5.612,1.144,-5.256,96.62806,-9.28,-8.07,66.75,0,108.9,13.85,-8.57,343.3
"2009-01-05 00:29:00",513059,4.786,25.91,3.493,0.825,-3.798,96.62943,-9.28,-8.04,66.78,0,108.9,13.85,-8.56,347.9
"2009-01-05 00:29:30",513060,4.562,28.51,3.525,0.663,-3.493,96.63081,-9.28,-8.04,66.8,0,109,13.85,-8.56,350.5
"2009-01-05 00:30:00",513061,4.169,28.32,4.93,0.869,-4.062,96.63271,-9.27,-8.06,66.82,0,109,13.85,-8.55,350.3
"2009-01-05 00:30:30",513062,4.078,27.64,5.073,1.051,-4.521,96.63517,-9.27,-8.11,66.73,0,109,13.85,-8.55,349.6
"2009-01-05 00:31:00",513063,4.184,26.59,5.642,0.991,-4.993,96.63248,-9.27,-8.18,66.69,0,109,13.85,-8.55,348.6
"2009-01-05 00:31:30",513064,4.252,23.72,6.415,0.952,-4.947,96.62356,-9.3,-8.15,66.76,0,109,13.85,-8.58,345.7
"2009-01-05 00:32:00",513065,4.493,30,5.532,0.981,-4.626,96.62295,-9.3,-8.15,66.7,0,109,13.85,-8.58,352.0
"2009-01-05 00:32:30",513066,4.863,32.9,2.864,0.74,-3.522,96.62547,-9.29,-8.09,66.75,0,109,13.85,-8.57,354.9
"2009-01-05 00:33:00",513067,4.835,33.27,3.236,0.693,-3.382,96.62598,-9.29,-8.1,66.71,0,109,13.85,-8.57,355.3
"2009-01-05 00:33:30",513068,4.541,30.58,5.617,0.905,-4.206,96.62556,-9.29,-8.15,66.71,0,109,13.85,-8.57,352.6
"2009-01-05 00:34:00",513069,4.94,30.34,4.882,0.883,-3.728,96.6247,-9.29,-8.11,66.76,0,109,13.85,-8.57,352.3
"2009-01-05 00:34:30",513070,4.682,30.08,3.923,0.773,-3.83,96.62209,-9.3,-8.12,66.82,0,109,13.85,-8.58,352.1
"2009-01-05 00:35:00",513071,5.041,33.57,4.24,0.437,-3.616,96.6187,-9.31,-8.1,66.84,0,108.9,13.85,-8.59,355.6
"2009-01-05 00:35:30",513072,4.869,36.53,1.774,0.72,-3.89,96.61868,-9.31,-8.11,66.8,0,108.9,13.85,-8.59,358.5
"2009-01-05 00:36:00",513073,4.813,28.85,5.329,0.904,-4.289,96.61868,-9.31,-8.18,66.8,0,108.9,13.85,-8.59,350.9
"2009-01-05 00:36:30",513074,4.123,28.3,5.87,1.124,-5.164,96.61868,-9.31,-8.18,66.86,0,108.9,13.85,-8.59,350.3
"2009-01-05 00:37:00",513075,5.052,32.13,4.11,0.709,-3.835,96.61868,-9.31,-8.14,66.87,0,108.9,13.85,-8.59,354.1
"2009-01-05 00:37:30",513076,4.803,34.15,3.48,0.704,-3.533,96.61868,-9.31,-8.11,66.92,0,108.9,13.85,-8.59,356.1
"2009-01-05 00:38:00",513077,4.719,31.35,4.939,0.771,-3.545,96.61868,-9.31,-8.12,67.01,0,108.9,13.85,-8.59,353.4
"2009-01-05 00:38:30",513078,4.918,33.72,4.057,0.711,-3.528,96.62005,-9.3,-8.12,67,0,108.9,13.85,-8.59,355.7
"2009-01-05 00:39:00",513079,4.622,30.11,4.332,0.989,-3.931,96.6175,-9.31,-8.13,67.03,0,108.9,13.85,-8.59,352.1
"2009-01-05 00:39:30",513080,4.879,31.26,2.714,0.721,-3.581,96.60756,-9.34,-8.12,66.99,0,108.9,13.85,-8.62,353.3
"2009-01-05 00:40:00",513081,4.216,27.72,5.558,1.096,-4.89,96.60408,-9.35,-8.22,66.94,0,108.9,13.84,-8.63,349.7
"2009-01-05 00:40:30",513082,4.254,27.57,6.116,1.121,-4.849,96.60461,-9.34,-8.2,67,0,108.9,13.85,-8.63,349.6
"2009-01-05 00:41:00",513083,4.194,27.57,5.465,0.947,-4.964,96.604,-9.35,-8.2,67.02,0,108.9,13.85,-8.63,349.6
"2009-01-05 00:41:30",513084,5.034,30.42,3.522,0.6,-3.429,96.59862,-9.36,-8.17,67.09,0,108.9,13.85,-8.64,352.4
"2009-01-05 00:42:00",513085,4.629,29.13,5.89,1.097,-4.486,96.5994,-9.36,-8.21,67.06,0,108.9,13.85,-8.64,351.1
"2009-01-05 00:42:30",513086,5.272,30.17,3.633,0.519,-3.216,96.59738,-9.36,-8.17,67.11,0,108.9,13.85,-8.64,352.2
"2009-01-05 00:43:00",513087,5.364,31.58,3.474,0.728,-3.425,96.59624,-9.37,-8.16,67.12,0,108.9,13.85,-8.65,353.6
"2009-01-05 00:43:30",513088,5.506,31.11,4.24,0.465,-3.495,96.59284,-9.37,-8.19,67.13,0,109,13.85,-8.66,353.1
"2009-01-05 00:44:00",513089,5.449,31.42,3.984,0.459,-3.737,96.59284,-9.37,-8.17,67.15,0,108.9,13.85,-8.66,353.4
"2009-01-05 00:44:30",513090,5.191,34.07,3.81,0.547,-3.835,96.59284,-9.37,-8.17,67.16,0,108.9,13.85,-8.66,356.1
"2009-01-05 00:45:00",513091,5.019,35.15,3.616,0.604,-3.722,96.59284,-9.37,-8.19,67.11,0,108.9,13.85,-8.66,357.1
"2009-01-05 00:45:30",513092,5.17,33.98,3.457,0.536,-3.903,96.59284,-9.37,-8.18,67.1,0,109,13.85,-8.66,356.0
"2009-01-05 00:46:00",513093,5.293,32.01,3.754,0.532,-3.886,96.59284,-9.37,-8.19,67.1,0,108.9,13.85,-8.66,354.0
"2009-01-05 00:46:30",513094,5.295,31.58,3.209,0.557,-3.773,96.59284,-9.37,-8.2,67.09,0,108.9,13.85,-8.66,353.6
"2009-01-05 00:47:00",513095,5.398,31.58,3.785,0.319,-3.541,96.59284,-9.37,-8.2,67.07,0,108.9,13.85,-8.66,353.6
"2009-01-05 00:47:30",513096,5.219,31.51,3.75,0.465,-3.703,96.59284,-9.37,-8.2,67.03,0,108.9,13.85,-8.66,353.5
"2009-01-05 00:48:00",513097,5.137,32.67,3.81,0.537,-3.785,96.59255,-9.37,-8.2,67.06,0,108.9,13.85,-8.66,354.7
"2009-01-05 00:48:30",513098,5.067,33.5,2.91,0.714,-4.051,96.59255,-9.37,-8.21,67.05,0,108.9,13.85,-8.66,355.5
"2009-01-05 00:49:00",513099,5.199,32.41,3.927,0.543,-4.004,96.59,-9.38,-8.19,67.05,0,108.9,13.85,-8.66,354.4
"2009-01-05 00:49:30",513100,5.17,32.67,3.813,0.487,-4.065,96.57978,-9.41,-8.21,67.07,0,108.9,13.85,-8.69,354.7
"2009-01-05 00:50:00",513101,5.225,32.92,3.19,0.589,-4.246,96.57609,-9.42,-8.22,67.1,0,108.9,13.85,-8.70,354.9
"2009-01-05 00:50:30",513102,5.255,32.76,3.209,0.756,-4.298,96.57325,-9.42,-8.23,67.09,0,108.9,13.86,-8.71,354.8
"2009-01-05 00:51:00",513103,5.399,32.01,3.153,0.451,-4.275,96.57012,-9.43,-8.21,67.13,0,108.9,13.86,-8.71,354.0
"2009-01-05 00:51:30",513104,5.159,31.45,3.314,0.7,-4.288,96.56615,-9.44,-8.22,67.14,0,108.9,13.86,-8.72,353.5
"2009-01-05 00:52:00",513105,5.053,29.84,3.567,0.532,-4.261,96.56216,-9.45,-8.22,67.14,0,108.9,13.86,-8.73,351.8
"2009-01-05 00:52:30",513106,5.068,30.02,3.807,0.49,-4.117,96.55877,-9.46,-8.24,67.17,0,108.9,13.86,-8.74,352.0
"2009-01-05 00:53:00",513107,5,30.48,3.186,0.578,-3.953,96.55959,-9.46,-8.25,67.21,0,108.9,13.86,-8.74,352.5
"2009-01-05 00:53:30",513108,5.197,30.81,4.296,0.461,-4.132,96.55987,-9.46,-8.25,67.24,0,108.9,13.86,-8.74,352.8
"2009-01-05 00:54:00",513109,5.233,32.21,4.085,0.505,-4.096,96.55932,-9.46,-8.24,67.25,0,108.9,13.86,-8.74,354.2
"2009-01-05 00:54:30",513110,5.247,31.36,3.876,0.512,-4.07,96.55932,-9.46,-8.23,67.25,0,108.9,13.86,-8.74,353.4
"2009-01-05 00:55:00",513111,5.025,32.58,3.629,0.525,-3.914,96.56014,-9.46,-8.25,67.21,0,108.9,13.85,-8.74,354.6
"2009-01-05 00:55:30",513112,5.169,32.51,3.879,0.452,-4.103,96.55932,-9.46,-8.25,67.23,0,108.9,13.85,-8.74,354.5
"2009-01-05 00:56:00",513113,4.809,29.27,3.396,0.894,-4.232,96.55959,-9.46,-8.24,67.26,0,108.9,13.85,-8.74,351.3
"2009-01-05 00:56:30",513114,4.796,30.37,5.078,1.019,-5.208,96.55932,-9.46,-8.26,67.22,0,108.9,13.85,-8.74,352.4
"2009-01-05 00:57:00",513115,3.835,25.29,5.104,0.987,-7.214,96.56069,-9.46,-8.42,67.02,0,108.9,13.85,-8.74,347.3
"2009-01-05 00:57:30",513116,5.026,32.33,4.505,0.817,-4.008,96.56288,-9.45,-8.23,67.06,0,108.9,13.85,-8.73,354.3
"2009-01-05 00:58:00",513117,5.065,31.66,3.908,0.84,-4.033,96.56206,-9.45,-8.28,66.8,0,108.9,13.85,-8.73,353.7
"2009-01-05 00:58:30",513118,4.878,31.87,4.863,0.54,-3.362,96.56371,-9.45,-8.25,66.71,0,108.9,13.85,-8.73,353.9
"2009-01-05 00:59:00",513119,4.631,23.15,5.427,0.831,-3.176,96.56453,-9.45,-8.27,66.95,0,108.9,13.85,-8.73,345.1
"2009-01-05 00:59:30",513120,4.629,31.77,4.725,0.787,-3.961,96.56141,-9.45,-8.24,67.18,0,108.9,13.85,-8.74,353.8
"2009-01-05 01:00:00",513121,4.482,32.06,5.797,0.931,-4.662,96.55801,-9.46,-8.26,67.08,0,108.9,13.85,-8.74,354.1
"2009-01-05 01:00:30",513122,4.196,28.76,6.11,0.96,-5.076,96.55997,-9.46,-8.35,66.98,0,108.9,13.86,-8.74,350.8
"2009-01-05 01:01:00",513123,3.614,25.82,6.592,1.149,-5.315,96.54803,-9.49,-8.36,67.01,0,108.9,13.87,-8.77,347.8
"2009-01-05 01:01:30",513124,3.475,24.15,6.12,1.2,-4.854,96.54482,-9.5,-8.34,67.16,0,108.9,13.87,-8.78,346.1
"2009-01-05 01:02:00",513125,4.234,28.87,4.571,0.833,-4.072,96.54163,-9.5,-8.34,67.11,0,108.9,13.87,-8.79,350.9
"2009-01-05 01:02:30",513126,4.257,29.33,6.405,1.129,-4.52,96.543,-9.5,-8.33,67.12,0,108.9,13.87,-8.78,351.3
"2009-01-05 01:03:00",513127,4.517,28.16,5.292,0.898,-4.479,96.53875,-9.51,-8.33,67.08,0,108.9,13.87,-8.79,350.2
"2009-01-05 01:03:30",513128,4.642,31.08,3.591,0.891,-3.803,96.53786,-9.51,-8.28,67.23,0,108.9,13.87,-8.80,353.1
"2009-01-05 01:04:00",513129,4.893,32.07,4.209,0.455,-3.829,96.5395,-9.51,-8.31,67.29,0,108.9,13.87,-8.79,354.1
"2009-01-05 01:04:30",513130,4.339,31.77,5.705,0.977,-4.342,96.53977,-9.51,-8.38,67.32,0,108.9,13.87,-8.79,353.8
"2009-01-05 01:05:00",513131,4.241,29.14,6.074,0.889,-4.572,96.5346,-9.52,-8.42,67.27,0,108.9,13.87,-8.80,351.1
"2009-01-05 01:05:30",513132,2.877,21.91,6.98,1.237,-6.345,96.52063,-9.56,-8.44,67.46,0,108.9,13.87,-8.84,343.9
"2009-01-05 01:06:00",513133,3.327,22.66,6.756,1.153,-4.8,96.51795,-9.56,-8.39,67.74,0,108.9,13.87,-8.85,344.7
"2009-01-05 01:06:30",513134,2.7,16.96,6.491,1.015,-4.766,96.51511,-9.57,-8.43,67.89,0,108.9,13.87,-8.85,339.0
"2009-01-05 01:07:00",513135,2.786,15.06,6.075,0.983,-4.272,96.51452,-9.57,-8.43,68,0,108.9,13.87,-8.85,337.1
"2009-01-05 01:07:30",513136,2.603,14.63,9.55,1.09,-4.942,96.51586,-9.57,-8.46,68.08,0,108.9,13.87,-8.85,336.6
"2009-01-05 01:08:00",513137,2.431,14.93,8.57,1.076,-5.429,96.51613,-9.57,-8.49,67.96,0,108.9,13.88,-8.85,336.9
"2009-01-05 01:08:30",513138,1.455,2.476,6.454,0.741,-8.25,96.51722,-9.57,-8.64,67.8,0,108.9,13.88,-8.85,324.5
"2009-01-05 01:09:00",513139,3.234,8.27,5.404,1.135,-5.088,96.51919,-9.56,-8.43,68.06,0,108.9,13.88,-8.84,330.3
"2009-01-05 01:09:30",513140,3.794,7.351,5.493,0.82,-3.961,96.5181,-9.56,-8.4,68.14,0,108.8,13.88,-8.85,329.4
"2009-01-05 01:10:00",513141,4.472,3.823,4.34,0.541,-3.493,96.52402,-9.55,-8.36,68.28,0,108.9,13.88,-8.83,325.8
"2009-01-05 01:10:30",513142,4.723,2.379,3.745,0.62,-3.609,96.52574,-9.54,-8.38,68.35,0,108.9,13.88,-8.83,324.4
"2009-01-05 01:11:00",513143,3.776,359.2,5.757,1.142,-5.253,96.52885,-9.54,-8.45,68.26,0,108.8,13.88,-8.82,321.2
"2009-01-05 01:11:30",513144,3.647,0.963,6.121,1.118,-5.614,96.52999,-9.53,-8.39,68.31,0,108.9,13.88,-8.82,323.0
"2009-01-05 01:12:00",513145,2.733,1.935,7.755,1.056,-6.347,96.53255,-9.53,-8.41,68.29,0,108.9,13.87,-8.81,323.9
"2009-01-05 01:12:30",513146,2.693,8.5,7.579,1.137,-5.161,96.53256,-9.53,-8.41,68.21,0,108.9,13.87,-8.81,330.5
"2009-01-05 01:13:00",513147,3.223,11.16,8.24,0.943,-4.455,96.52629,-9.54,-8.47,68.16,0,108.9,13.87,-8.82,333.2
"2009-01-05 01:13:30",513148,3.046,6.944,7.228,1.128,-5.434,96.52431,-9.55,-8.45,68.22,0,108.9,13.87,-8.83,328.9
"2009-01-05 01:14:00",513149,3.419,4.402,5.853,1.12,-5.203,96.51919,-9.56,-8.4,68.25,0,108.9,13.87,-8.84,326.4
"2009-01-05 01:14:30",513150,4.169,1.496,5.063,1.059,-4.912,96.51697,-9.57,-8.47,68.2,0,108.9,13.87,-8.85,323.5
"2009-01-05 01:15:00",513151,3.697,0.066,6.357,1.276,-5.617,96.51778,-9.56,-8.41,68.29,0,108.9,13.88,-8.85,322.1
"2009-01-05 01:15:30",513152,3.961,4.257,4.877,0.926,-4.493,96.51723,-9.57,-8.47,68.25,0,108.9,13.88,-8.85,326.3
"2009-01-05 01:16:00",513153,4.082,5.395,4.761,0.653,-3.686,96.51721,-9.57,-8.41,68.31,0,108.9,13.88,-8.85,327.4
"2009-01-05 01:16:30",513154,3.546,3.636,6.073,0.977,-4.38,96.51694,-9.57,-8.43,68.31,0,108.9,13.88,-8.85,325.6
"2009-01-05 01:17:00",513155,3.727,2.646,6.974,0.992,-4.917,96.51721,-9.57,-8.48,68.28,0,108.9,13.88,-8.85,324.6
"2009-01-05 01:17:30",513156,3.632,357.3,6.303,1.126,-6.772,96.51885,-9.56,-8.57,68.19,0,108.9,13.88,-8.84,319.3
"2009-01-05 01:18:00",513157,3.817,359.2,6.088,1.07,-5.341,96.51994,-9.56,-8.41,68.35,0,108.9,13.88,-8.84,321.2
"2009-01-05 01:18:30",513158,4.527,1.334,3.693,0.805,-3.901,96.51885,-9.56,-8.45,68.31,0,108.9,13.88,-8.84,323.3
"2009-01-05 01:19:00",513159,4.6,359.7,8.94,0.786,-3.793,96.51994,-9.56,-8.36,68.46,0,108.9,13.88,-8.84,321.7
"2009-01-05 01:19:30",513160,4.031,5.27,9.18,0.972,-4.557,96.51964,-9.56,-8.44,68.51,0,108.9,13.88,-8.84,327.3
"2009-01-05 01:20:00",513161,3.651,3.574,13.22,0.982,-5.244,96.49631,-9.62,-8.43,68.78,0,108.9,13.88,-8.90,325.6
"2009-01-05 01:20:30",513162,3.363,356.7,9.74,1.21,-6.179,96.48692,-9.64,-8.57,68.91,0,108.9,13.88,-8.93,318.7
"2009-01-05 01:21:00",513163,2.678,356,7.579,1.561,-6.756,96.46732,-9.69,-8.59,69.12,0,108.9,13.88,-8.98,318.0
"2009-01-05 01:21:30",513164,4.212,356.3,7.306,1.296,-5.147,96.46133,-9.71,-8.57,69.21,0,108.9,13.89,-8.99,318.3
"2009-01-05 01:22:00",513165,4.836,358.2,4.747,0.645,-3.611,96.46106,-9.71,-8.47,69.19,0,108.9,13.89,-8.99,320.2
"2009-01-05 01:22:30",513166,4.465,1.184,4.37,0.657,-3.567,96.45904,-9.71,-8.5,69.29,0,108.9,13.89,-9.00,323.2
"2009-01-05 01:23:00",513167,4.021,4.781,3.625,0.706,-3.877,96.46361,-9.7,-8.5,69.22,0,108.9,13.89,-8.98,326.8
"2009-01-05 01:23:30",513168,3.153,6.128,6.22,1.043,-5.458,96.4775,-9.67,-8.6,69.1,0,108.9,13.89,-8.95,328.1
"2009-01-05 01:24:00",513169,0.96,3.545,5.759,0.167,-8.62,96.48857,-9.64,-8.66,68.92,0,108.9,13.92,-8.92,325.5
"2009-01-05 01:24:30",513170,1.769,10.83,9.4,1.125,-6.708,96.48943,-9.64,-8.67,68.8,0,108.9,13.89,-8.92,332.8
"2009-01-05 01:25:00",513171,2.301,3.995,5.238,1.367,-5.9,96.48943,-9.64,-8.57,68.88,0,108.9,13.89,-8.92,326.0
"2009-01-05 01:25:30",513172,4.006,3.032,4.783,0.731,-3.67,96.48943,-9.64,-8.45,69,0,108.9,13.89,-8.92,325.0
"2009-01-05 01:26:00",513173,3.994,3.011,4.134,0.711,-3.781,96.48943,-9.64,-8.46,68.99,0,108.9,13.89,-8.92,325.0
"2009-01-05 01:26:30",513174,3.707,3.982,4.383,0.962,-4.925,96.48943,-9.64,-8.51,68.86,0,108.9,13.89,-8.92,326.0
"2009-01-05 01:27:00",513175,2.11,358.7,5.832,1.041,-7.447,96.48943,-9.64,-8.61,68.65,0,108.9,13.89,-8.92,320.7
"2009-01-05 01:27:30",513176,1.916,354.9,4.466,0.747,-8.41,96.48943,-9.64,-8.68,68.53,0,108.9,13.89,-8.92,316.9
"2009-01-05 01:28:00",513177,3.627,356.1,5.379,1.159,-5.262,96.48943,-9.64,-8.52,68.65,0,108.9,13.89,-8.92,318.1
"2009-01-05 01:28:30",513178,4.219,359,3.663,0.692,-3.537,96.48972,-9.64,-8.44,68.66,0,108.9,13.89,-8.92,321.0
"2009-01-05 01:29:00",513179,4.328,356.9,2.504,0.703,-3.628,96.48972,-9.64,-8.45,68.64,0,108.9,13.89,-8.92,318.9
"2009-01-05 01:29:30",513180,4.416,354.5,3.641,0.679,-4.468,96.49,-9.64,-8.45,68.62,0,108.9,13.89,-8.92,316.5
"2009-01-05 01:30:00",513181,3.672,348.3,5.438,1.118,-5.819,96.48943,-9.64,-8.5,68.55,0,108.9,13.88,-8.92,310.3
"2009-01-05 01:30:30",513182,3.583,350.2,5.707,1.095,-6.456,96.48943,-9.64,-8.64,68.4,0,108.9,13.88,-8.92,312.2
"2009-01-05 01:31:00",513183,3.555,350.4,6.106,1.147,-5.988,96.48943,-9.64,-8.53,68.54,0,108.9,13.88,-8.92,312.4
"2009-01-05 01:31:30",513184,3.748,352.8,5.586,1.085,-4.865,96.49,-9.64,-8.47,68.63,0,108.9,13.89,-8.92,314.8
"2009-01-05 01:32:00",513185,4.362,356.5,3.211,0.594,-3.499,96.49028,-9.63,-8.44,68.79,0,108.9,13.89,-8.92,318.5
"2009-01-05 01:32:30",513186,4.128,354.6,4.783,0.865,-4.235,96.49369,-9.63,-8.43,68.76,0,108.9,13.89,-8.91,316.6
"2009-01-05 01:33:00",513187,4.104,354.8,5.426,0.946,-5.013,96.49568,-9.62,-8.48,68.72,0,108.9,13.89,-8.90,316.8
"2009-01-05 01:33:30",513188,3.709,358.8,5.835,1.015,-5.421,96.49341,-9.63,-8.56,68.6,0,108.9,13.89,-8.91,320.8
"2009-01-05 01:34:00",513189,3.443,357.5,6.32,1.039,-5.414,96.49398,-9.63,-8.55,68.63,0,108.9,13.89,-8.91,319.5
"2009-01-05 01:34:30",513190,3.43,356.4,6.742,1.148,-5.375,96.49539,-9.62,-8.51,68.67,0,108.9,13.89,-8.90,318.4
"2009-01-05 01:35:00",513191,3.929,358.8,4.577,0.975,-4.154,96.49596,-9.62,-8.45,68.72,0,108.9,13.89,-8.90,320.8
"2009-01-05 01:35:30",513192,4.04,357.1,5.396,0.953,-4.787,96.49625,-9.62,-8.49,68.66,0,108.9,13.89,-8.90,319.1
"2009-01-05 01:36:00",513193,3.887,357.3,5.665,1.097,-5.27,96.4971,-9.62,-8.48,68.64,0,108.9,13.89,-8.90,319.3
"2009-01-05 01:36:30",513194,4.356,359.1,4.162,0.82,-4.388,96.49142,-9.63,-8.41,68.68,0,108.9,13.89,-8.91,321.1
"2009-01-05 01:37:00",513195,3.382,358.6,5.68,1.174,-5.491,96.48943,-9.64,-8.49,68.59,0,108.9,13.89,-8.92,320.6
"2009-01-05 01:37:30",513196,3.499,2.536,5.737,1.094,-4.572,96.48943,-9.64,-8.48,68.65,0,108.9,13.9,-8.92,324.5
"2009-01-05 01:38:00",513197,2.816,359.9,5.871,1.123,-5.394,96.48943,-9.64,-8.5,68.66,0,108.8,13.9,-8.92,321.9
"2009-01-05 01:38:30",513198,3.191,2.105,5.863,1.05,-5.142,96.48943,-9.64,-8.49,68.71,0,108.9,13.9,-8.92,324.1
"2009-01-05 01:39:00",513199,3.512,0.169,5.771,1.034,-5.324,96.48943,-9.64,-8.57,68.62,0,108.9,13.9,-8.92,322.2
"2009-01-05 01:39:30",513200,3.426,357.1,5.534,1.18,-5.914,96.48943,-9.64,-8.49,68.73,0,108.9,13.9,-8.92,319.1
"2009-01-05 01:40:00",513201,3.433,0.132,4.983,1.141,-5.076,96.48886,-9.64,-8.48,68.75,0,108.9,13.89,-8.92,322.1
"2009-01-05 01:40:30",513202,3.236,3.36,5.452,1.046,-4.861,96.48772,-9.64,-8.49,68.72,0,108.9,13.9,-8.92,325.4
"2009-01-05 01:41:00",513203,2.812,358.4,5.816,1.163,-5.846,96.48828,-9.64,-8.58,68.66,0,108.9,13.9,-8.92,320.4
"2009-01-05 01:41:30",513204,3.179,358.4,5.756,1.076,-5.433,96.4894,-9.64,-8.46,68.75,0,108.8,13.9,-8.92,320.4
"2009-01-05 01:42:00",513205,3.566,357.7,5.176,0.947,-5.457,96.48997,-9.64,-8.54,68.62,0,108.8,13.9,-8.92,319.7
"2009-01-05 01:42:30",513206,3.646,357.2,5.591,0.985,-4.993,96.49052,-9.63,-8.49,68.64,0,108.9,13.9,-8.92,319.2
"2009-01-05 01:43:00",513207,3.597,356.3,5.391,1.016,-4.999,96.49025,-9.63,-8.53,68.56,0,108.8,13.9,-8.92,318.3
"2009-01-05 01:43:30",513208,3.292,353.5,5.804,1.14,-5.067,96.49052,-9.63,-8.43,68.66,0,108.9,13.9,-8.92,315.5
"2009-01-05 01:44:00",513209,3.597,354.1,5.032,0.997,-4.986,96.49081,-9.63,-8.48,68.66,0,108.9,13.9,-8.92,316.1
"2009-01-05 01:44:30",513210,3.634,353.4,5.333,0.952,-5.301,96.49162,-9.63,-8.48,68.66,0,108.9,13.9,-8.91,315.4
"2009-01-05 01:45:00",513211,3.432,351.8,5.919,1.104,-5.855,96.49217,-9.63,-8.55,68.55,0,108.9,13.9,-8.91,313.8
"2009-01-05 01:45:30",513212,3.093,349.9,5.683,1.137,-5.83,96.493,-9.63,-8.47,68.6,0,108.9,13.9,-8.91,311.9
"2009-01-05 01:46:00",513213,3.619,353,5.346,1.053,-4.787,96.49327,-9.63,-8.49,68.53,0,108.9,13.9,-8.91,315.0
"2009-01-05 01:46:30",513214,3.751,353.3,5.264,0.967,-4.827,96.49381,-9.63,-8.51,68.49,0,108.9,13.9,-8.91,315.3
"2009-01-05 01:47:00",513215,3.637,353.7,5.319,1.044,-4.848,96.49519,-9.62,-8.51,68.5,0,108.9,13.9,-8.90,315.7